When you browse on this site, cookies collect data to enhance your experience and personalize the content and advertising you see.
Visit our Privacy Policy to learn more. By continuing to use the site, you agree to this use of cookies and data.
  • In Denmark
  • List of Countries
  • For 7 days
  • Water Temperature
  • Satellite Maps
  • Weather Map
  • Weather Widgets
  • user-avatar
    Login

    Hourly Weather Darwin

    Today, 26 June, Wednesday

    Time Temperature Precipitation Wind Pressure Humidity
    00:00 +17°C° 0 mm 3 mps 762 mmHg 39%
    01:00 +17°C° 0 mm 3 mps 762 mmHg 36%
    02:00 +15°C° 0 mm 4 mps 761 mmHg 33%
    03:00 +15°C° 0 mm 4 mps 761 mmHg 29%
    04:00 +14°C° 0 mm 4 mps 761 mmHg 30%
    05:00 +13°C° 0 mm 4 mps 762 mmHg 30%
    06:00 +12°C° 0 mm 4 mps 762 mmHg 31%
    07:00 +15°C° 0 mm 5 mps 762 mmHg 29%
    08:00 +17°C° 0 mm 5 mps 762 mmHg 27%
    09:00 +21°C° 0 mm 5 mps 762 mmHg 22%
    10:00 +25°C° 0 mm 5 mps 762 mmHg 21%
    11:00 +27°C° 0 mm 4 mps 762 mmHg 19%
    12:00 +30°C° 0 mm 4 mps 761 mmHg 18%
    13:00 +31°C° 0 mm 3 mps 760 mmHg 18%
    14:00 +33°C° 0 mm 3 mps 760 mmHg 18%
    15:00 +34°C° 0 mm 2 mps 759 mmHg 17%
    16:00 +30°C° 0 mm 2 mps 759 mmHg 25%
    17:00 +26°C° 0 mm 2 mps 759 mmHg 34%
    18:00 +23°C° 0 mm 2 mps 759 mmHg 42%
    19:00 +21°C° 0 mm 2 mps 759 mmHg 46%
    20:00 +21°C° 0 mm 1 mps 760 mmHg 50%
    21:00 +20°C° 0 mm 1 mps 761 mmHg 46%
    22:00 +19°C° 0 mm 1 mps 761 mmHg 44%
    23:00 +17°C° 0 mm 2 mps 761 mmHg 42%

    Tomorrow, 27 June, Thursday

    Time Temperature Precipitation Wind Pressure Humidity
    00:00 +17°C° 0 mm 2 mps 761 mmHg 40%
    01:00 +17°C° 0 mm 2 mps 761 mmHg 43%
    02:00 +17°C° 0 mm 3 mps 761 mmHg 45%
    03:00 +16°C° 0 mm 3 mps 761 mmHg 48%
    04:00 +16°C° 0 mm 3 mps 761 mmHg 54%
    05:00 +15°C° 0 mm 4 mps 761 mmHg 60%
    06:00 +14°C° 0 mm 4 mps 761 mmHg 66%
    07:00 +17°C° 0 mm 4 mps 761 mmHg 60%
    08:00 +19°C° 0 mm 4 mps 761 mmHg 54%
    09:00 +21°C° 0 mm 4 mps 762 mmHg 48%
    10:00 +25°C° 0 mm 4 mps 761 mmHg 41%
    11:00 +28°C° 0 mm 3 mps 761 mmHg 34%
    12:00 +30°C° 0 mm 3 mps 760 mmHg 27%
    13:00 +31°C° 0 mm 3 mps 760 mmHg 26%
    14:00 +33°C° 0 mm 4 mps 759 mmHg 26%
    15:00 +33°C° 0 mm 4 mps 758 mmHg 25%
    16:00 +30°C° 0 mm 4 mps 758 mmHg 35%
    17:00 +27°C° 0 mm 3 mps 758 mmHg 46%
    18:00 +24°C° 0 mm 3 mps 758 mmHg 56%
    19:00 +23°C° 0 mm 2 mps 759 mmHg 59%
    20:00 +21°C° 0 mm 2 mps 759 mmHg 62%
    21:00 +19°C° 0 mm 2 mps 760 mmHg 66%
    22:00 +19°C° 0 mm 2 mps 760 mmHg 68%
    23:00 +19°C° 0 mm 2 mps 760 mmHg 70%

    Day after tomorrow, 28 June, Friday

    Time Temperature Precipitation Wind Pressure Humidity
    00:00 +19°C° 0 mm 1 mps 760 mmHg 73%
    01:00 +19°C° 0 mm 1 mps 760 mmHg 76%
    02:00 +18°C° 0 mm 2 mps 760 mmHg 79%
    03:00 +18°C° 0 mm 2 mps 760 mmHg 82%
    04:00 +18°C° 0 mm 2 mps 760 mmHg 82%
    05:00 +18°C° 0 mm 2 mps 760 mmHg 83%
    06:00 +17°C° 0 mm 2 mps 761 mmHg 84%
    07:00 +20°C° 0 mm 2 mps 761 mmHg 75%
    08:00 +22°C° 0 mm 3 mps 761 mmHg 66%
    09:00 +25°C° 0 mm 3 mps 762 mmHg 57%
    10:00 +27°C° 0 mm 3 mps 761 mmHg 50%
    11:00 +29°C° 0 mm 2 mps 761 mmHg 42%
    12:00 +32°C° 0 mm 2 mps 760 mmHg 35%
    13:00 +33°C° 0 mm 3 mps 759 mmHg 36%
    14:00 +33°C° 0 mm 3 mps 759 mmHg 36%
    15:00 +33°C° 0 mm 4 mps 758 mmHg 36%
    16:00 +30°C° 0 mm 3 mps 758 mmHg 46%
    17:00 +27°C° 0 mm 3 mps 759 mmHg 56%
    18:00 +25°C° 0 mm 2 mps 759 mmHg 66%
    19:00 +24°C° 0 mm 2 mps 759 mmHg 71%
    20:00 +22°C° 0 mm 3 mps 760 mmHg 76%
    21:00 +21°C° 0 mm 3 mps 760 mmHg 81%
    22:00 +20°C° 0 mm 3 mps 760 mmHg 83%
    23:00 +20°C° 0 mm 3 mps 761 mmHg 84%

    29 June, Saturday

    Time Temperature Precipitation Wind Pressure Humidity
    00:00 +19°C° 0 mm 3 mps 761 mmHg 85%
    01:00 +19°C° 0 mm 2 mps 760 mmHg 86%
    02:00 +19°C° 0 mm 2 mps 760 mmHg 86%
    03:00 +18°C° 0 mm 2 mps 760 mmHg 87%
    04:00 +18°C° 0 mm 2 mps 760 mmHg 84%
    05:00 +18°C° 0 mm 2 mps 760 mmHg 82%
    06:00 +18°C° 0 mm 2 mps 760 mmHg 79%
    07:00 +21°C° 0 mm 2 mps 761 mmHg 70%
    08:00 +24°C° 0 mm 3 mps 761 mmHg 62%
    09:00 +26°C° 0 mm 3 mps 761 mmHg 53%
    10:00 +28°C° 0 mm 3 mps 761 mmHg 46%
    11:00 +32°C° 0 mm 4 mps 760 mmHg 39%
    12:00 +34°C° 0 mm 4 mps 760 mmHg 33%
    13:00 +34°C° 0 mm 4 mps 759 mmHg 31%
    14:00 +35°C° 0 mm 3 mps 758 mmHg 29%
    15:00 +36°C° 0 mm 3 mps 757 mmHg 27%
    16:00 +33°C° 0 mm 3 mps 758 mmHg 36%
    17:00 +29°C° 0 mm 2 mps 758 mmHg 44%
    18:00 +27°C° 0 mm 2 mps 758 mmHg 53%
    19:00 +25°C° 0 mm 1 mps 759 mmHg 59%
    20:00 +24°C° 0 mm 1 mps 759 mmHg 65%
    21:00 +23°C° 0 mm 1 mps 760 mmHg 72%
    22:00 +22°C° 0 mm 1 mps 760 mmHg 70%
    23:00 +21°C° 0 mm 2 mps 760 mmHg 68%

    30 June, Sunday

    Time Temperature Precipitation Wind Pressure Humidity
    00:00 +21°C° 0 mm 2 mps 760 mmHg 66%
    01:00 +21°C° 0 mm 2 mps 760 mmHg 66%
    02:00 +20°C° 0 mm 2 mps 759 mmHg 66%
    03:00 +20°C° 0 mm 2 mps 759 mmHg 66%
    04:00 +20°C° 0 mm 3 mps 759 mmHg 69%
    05:00 +19°C° 0 mm 3 mps 759 mmHg 71%
    06:00 +18°C° 0 mm 4 mps 760 mmHg 74%
    07:00 +21°C° 0 mm 5 mps 760 mmHg 66%
    08:00 +23°C° 0 mm 5 mps 760 mmHg 58%
    09:00 +27°C° 0 mm 5 mps 761 mmHg 50%
    10:00 +29°C° 0 mm 5 mps 760 mmHg 43%
    11:00 +32°C° 0 mm 5 mps 760 mmHg 36%
    12:00 +34°C° 0 mm 5 mps 759 mmHg 29%
    13:00 +35°C° 0 mm 4 mps 759 mmHg 29%
    14:00 +36°C° 0 mm 4 mps 758 mmHg 29%
    15:00 +36°C° 0 mm 4 mps 757 mmHg 29%
    16:00 +34°C° 0 mm 3 mps 757 mmHg 37%
    17:00 +30°C° 0 mm 3 mps 757 mmHg 44%
    18:00 +28°C° 0 mm 2 mps 758 mmHg 52%
    19:00 +27°C° 0 mm 2 mps 758 mmHg 56%
    20:00 +25°C° 0 mm 2 mps 759 mmHg 61%
    21:00 +24°C° 0 mm 1 mps 759 mmHg 65%
    22:00 +24°C° 0 mm 2 mps 760 mmHg 63%
    23:00 +22°C° 0 mm 3 mps 760 mmHg 62%

    1 July, Monday

    Time Temperature Precipitation Wind Pressure Humidity
    00:00 +22°C° 0 mm 4 mps 760 mmHg 60%
    01:00 +22°C° 0 mm 4 mps 760 mmHg 61%
    02:00 +21°C° 0 mm 5 mps 760 mmHg 61%
    03:00 +20°C° 0 mm 5 mps 760 mmHg 61%
    04:00 +20°C° 0 mm 5 mps 760 mmHg 68%
    05:00 +19°C° 0 mm 6 mps 760 mmHg 74%
    06:00 +19°C° 0 mm 6 mps 760 mmHg 80%
    07:00 +21°C° 0 mm 6 mps 760 mmHg 69%
    08:00 +23°C° 0 mm 7 mps 761 mmHg 58%
    09:00 +26°C° 0 mm 7 mps 761 mmHg 48%
    10:00 +28°C° 0 mm 6 mps 760 mmHg 42%
    11:00 +29°C° 0 mm 6 mps 760 mmHg 37%
    12:00 +32°C° 0 mm 5 mps 760 mmHg 32%
    13:00 +33°C° 0 mm 4 mps 759 mmHg 30%
    14:00 +34°C° 0 mm 4 mps 758 mmHg 28%
    15:00 +34°C° 0 mm 3 mps 757 mmHg 27%
    16:00 +31°C° 0 mm 3 mps 757 mmHg 32%
    17:00 +29°C° 0 mm 2 mps 758 mmHg 38%
    18:00 +27°C° 0 mm 2 mps 758 mmHg 43%
    19:00 +25°C° 0 mm 1 mps 758 mmHg 48%
    20:00 +23°C° 0 mm 1 mps 759 mmHg 53%
    21:00 +22°C° 0 mm 1 mps 759 mmHg 58%
    22:00 +21°C° 0 mm 1 mps 759 mmHg 55%
    23:00 +20°C° 0 mm 2 mps 759 mmHg 52%
    Show more